Site contains unofficial IBTrACS data. Visit the IBTrACS Website to access archived data.

1976 Tropical Low ALAN (1976038S22135)


IBTrACS version v04r00. Visit IBTrACS website for data access.
Please direct all questions to the IBTrACS Q and A forum

Storm track - Intensity - Wind Radii - Intensity Data - Source Data - All data

Summary Information

Storm ID 1976038S22135
Start Feb 7 05Z
Max Intensity 30 kt (Feb 7 06Z), 992 mb (Feb 7 06Z)
End Feb 9 06Z
ATCF IDs
Track status Best track data.

Storm track plot

Map of storm track

Intensity plots

Map of storm track

Radial wind information

No radial wind information for this storm


Position and Intensity Table

BASIN ISO_TIME_________ NATURE LAT LON NEUMANN WIND NEUMANN PRES
degrees north degrees east kts mb
SI 1976-02-07 05:00:00 TS -22.00 134.74
SI 06:00:00 TS -22.10 134.50 30 992
SI 09:00:00 TS -22.53 132.25 30 993
SI 11:00:00 TS -22.84 130.60 30 993
SI 12:00:00 TS -23.00 130.00 30 994
SI 15:00:00 TS -23.47 129.75 30 993
SI 17:00:00 TS -23.77 130.05 30 993
SI 18:00:00 TS -23.90 130.20 30 993
SI 21:00:00 TS -24.19 130.29 30 993
SI 23:00:00 TS -24.33 130.31 30 993
SI 1976-02-08 00:00:00 TS -24.40 130.30 30 993
SI 03:00:00 TS -24.62 130.16 30 992
SI 05:00:00 TS -24.75 130.04 30 992
SI 06:00:00 TS -24.80 130.00 30 992
SI 08:00:00 TS -24.88 129.95 30 992
SI 09:00:00 TS -24.91 129.95 30 993
SI 11:00:00 TS -24.97 129.97 30 993
SI 12:00:00 TS -25.00 130.00 30 994
SI 15:00:00 TS -25.11 130.16 30 993
SI 17:00:00 TS -25.17 130.32 30 993
SI 18:00:00 TS -25.20 130.40 30 993
SI 21:00:00 TS -25.23 130.20 30 993
SI 23:00:00 TS -25.27 130.48 30 993
SI 1976-02-09 00:00:00 TS -25.30 130.90 30 993
SI 03:00:00 TS -25.47 134.00 30 992
SP 05:00:00 TS -25.56 136.34 30 992
SP 06:00:00 TS -25.60 137.30 30 992

Source Information

Agency Information
USA
TOKYO
CMA
HKO
NEWDELHI
REUNION
BOM
NADI
WELLINGTON
DS824
TD9636
TD9635
NEUMANN tracks.sh:Storm=459:ALAN:BSH1376:BM465
MLC

All available IBTrACS Data

SEASON BASIN SUBBASIN ISO_TIME_________ NATURE LAT LON DIST2LAND LANDFALL IFLAG USA SSHS NEUMANN LAT NEUMANN LON NEUMANN CLASS NEUMANN WIND NEUMANN PRES STORM SPEED STORM DIR
Year degrees north degrees east km km 1 degrees north degrees east kts mb kts degrees
1976 SI WA 1976-02-07 05:00:00 TS -22.00 134.74 0 0 ______________ -1 15 246
1976 SI WA 06:00:00 TS -22.10 134.50 0 0 ____________O_ -1 -22.10 134.50 TC 30 992 36 257
1976 SI WA 09:00:00 TS -22.53 132.25 0 0 ____________P_ -1 -22.56 131.78 TC 30 993 44 258
1976 SI WA 11:00:00 TS -22.84 130.60 0 0 ____________P_ -1 -22.85 130.43 TC 30 993 43 257
1976 SI WA 12:00:00 TS -23.00 130.00 0 0 ____________O_ -1 -23.00 130.00 TC 30 994 15 231
1976 SI WA 15:00:00 TS -23.47 129.75 0 0 ____________P_ -1 -23.47 129.75 TC 30 993 9 177
1976 SI WA 17:00:00 TS -23.77 130.05 0 0 ____________P_ -1 -23.77 130.05 TC 30 993 12 136
1976 SI WA 18:00:00 TS -23.90 130.20 0 0 ____________O_ -1 -23.90 130.20 TC 30 993 7 152
1976 SI WA 21:00:00 TS -24.19 130.29 0 0 ____________P_ -1 -24.19 130.29 TC 30 993 5 167
1976 SI WA 23:00:00 TS -24.33 130.31 0 0 ____________P_ -1 -24.33 130.31 TC 30 993 4 176
1976 SI WA 1976-02-08 00:00:00 TS -24.40 130.30 0 0 ____________O_ -1 -24.40 130.30 TC 30 993 5 206
1976 SI WA 03:00:00 TS -24.62 130.16 0 0 ____________P_ -1 -24.62 130.16 TC 30 992 5 214
1976 SI WA 05:00:00 TS -24.75 130.04 0 0 ____________P_ -1 -24.75 130.04 TC 30 992 5 219
1976 SI WA 06:00:00 TS -24.80 130.00 0 0 ____________O_ -1 -24.80 130.00 TC 30 992 3 211
1976 SI WA 08:00:00 TS -24.88 129.95 0 0 ____________P_ -1 -24.88 129.95 TC 30 992 2 194
1976 SI WA 09:00:00 TS -24.91 129.95 0 0 ____________P_ -1 -24.91 129.95 TC 30 993 2 0
1976 SI WA 11:00:00 TS -24.97 129.97 0 0 ____________P_ -1 -24.97 129.97 TC 30 993 2 151
1976 SI WA 12:00:00 TS -25.00 130.00 0 0 ____________O_ -1 -25.00 130.00 TC 30 994 3 127
1976 SI WA 15:00:00 TS -25.11 130.16 0 0 ____________P_ -1 -25.11 130.16 TC 30 993 4 121
1976 SI WA 17:00:00 TS -25.17 130.32 0 0 ____________P_ -1 -25.17 130.32 TC 30 993 5 113
1976 SI WA 18:00:00 TS -25.20 130.40 0 0 ____________O_ -1 -25.20 130.40 TC 30 993 2 240
1976 SI WA 21:00:00 TS -25.23 130.20 0 0 ____________P_ -1 -25.23 130.20 TC 30 993 1 133
1976 SI WA 23:00:00 TS -25.27 130.48 0 0 ____________P_ -1 -25.27 130.48 TC 30 993 13 96
1976 SI WA 1976-02-09 00:00:00 TS -25.30 130.90 0 0 ____________O_ -1 -25.30 130.90 TC 30 993 48 94
1976 SI WA 03:00:00 TS -25.47 134.00 0 0 ____________P_ -1 -25.46 133.51 TC 30 992 59 93
1976 SP EA 05:00:00 TS -25.56 136.34 0 0 ____________P_ -1 -25.56 135.98 TC 30 992 60 93
1976 SP EA 06:00:00 TS -25.60 137.30 0 ____________O_ -1 -25.60 137.30 TC 30 992 52 93